TURKSAT 4A

Last updated on Sat Aug 15 2026 00:02:59 GMT+0000 (Coordinated Universal Time)

1 39522U 14007A 26226.50496248 .00000131 00000+0 00000+0 0 9992 2 39522 0.0906 280.1342 0002235 315.2226 311.3399 1.00274205 45550
UTC large
Height (km)
Speed (km/s)
/
Latitude / Longitude
Inclination (degrees)
Orbital Period (minutes)
Azimuth
Elevation
Range (km)
Doppler Factor

Next 0 passes for location: London (51.5072 / 0.1276)

No passes found over London.
TURKSAT 4A